This is the latest recevied weather packets stored in our database for station/object EA7RX-4. If no packets are shown the sender has not sent any weather packets the latest 10 day(s).
| Time | Temp. | Humidity | Pressure | Rain* | Wind** | Luminosity | Snow |
|---|---|---|---|---|---|---|---|
| 1787467203 | 20° C | 81% | 1016.7 hPa | 0 mm | - | 95 W/m² | - |
| 1787466603 | 20° C | 84% | 1016.7 hPa | 0 mm | - | 66 W/m² | - |
| 1787466003 | 19.44° C | 84% | 1016.6 hPa | 0 mm | - | 57 W/m² | - |
| 1787465403 | 19.44° C | 85% | 1016.6 hPa | 0 mm | - | 40 W/m² | - |
| 1787464803 | 19.44° C | 85% | 1016.2 hPa | 0 mm | - | 23 W/m² | - |
| 1787464203 | 19.44° C | 85% | 1016.3 hPa | 0 mm | - | 16 W/m² | - |
| 1787463603 | 19.44° C | 85% | 1016.1 hPa | 0 mm | - | 8 W/m² | - |
| 1787463003 | 19.44° C | 85% | 1015.9 hPa | 0 mm | - | 3 W/m² | - |
| 1787462403 | 19.44° C | 85% | 1016.1 hPa | 0 mm | - | 0 W/m² | - |
| 1787461803 | 19.44° C | 85% | 1016.1 hPa | 0 mm | - | 0 W/m² | - |
| 1787461203 | 19.44° C | 85% | 1016.1 hPa | 0 mm | - | 0 W/m² | - |
| 1787460603 | 19.44° C | 85% | 1015.7 hPa | 0 mm | - | 0 W/m² | - |
| 1787460003 | 19.44° C | 85% | 1015.7 hPa | 0 mm | - | 0 W/m² | - |
| 1787459403 | 19.44° C | 85% | 1015.8 hPa | 0 mm | - | 0 W/m² | - |
| 1787458803 | 19.44° C | 85% | 1015.9 hPa | 0 mm | - | 0 W/m² | - |
| 1787458203 | 19.44° C | 85% | 1015.7 hPa | 0 mm | - | 0 W/m² | - |
| 1787457603 | 19.44° C | 85% | 1015.9 hPa | 0 mm | - | 0 W/m² | - |
| 1787457003 | 19.44° C | 85% | 1015.8 hPa | 0 mm | - | 0 W/m² | - |
| 1787456403 | 19.44° C | 84% | 1015.4 hPa | 0 mm | - | 0 W/m² | - |
| 1787455803 | 19.44° C | 84% | 1015.6 hPa | 0 mm | - | 0 W/m² | - |
| 1787455203 | 19.44° C | 84% | 1015.8 hPa | 0 mm | - | 0 W/m² | - |
| 1787454603 | 20° C | 83% | 1015.7 hPa | 0 mm | - | 0 W/m² | - |
| 1787454003 | 20° C | 83% | 1015.7 hPa | 0 mm | - | 0 W/m² | - |
| 1787453403 | 20° C | 83% | 1015.6 hPa | 0 mm | - | 0 W/m² | - |
| 1787452803 | 20° C | 83% | 1015.6 hPa | 0 mm | - | 0 W/m² | - |
* Rain latest hour (hover to see other rain measurements)
** Current wind speed in m/s (hover to see current wind gust speed)